[[{"header":{"parameterUnit":"m.s-1","parameterCategory":1,"la1":30.2991,"la2":30.254,"lo1":-89.0895,"lo2":-89.0444,"dy":0.0017,"dx":0.0017,"nx":28,"ny":28,"refTime":"2023-08-23T09:00:00:Z","depth":0,"parameterNumber":2,"parameterNumberName":"U-component_of_WINDS"},"data":[0,0,0,0,0,0,0,0,0,0,0,0,0,0,0,0,0,0,0,0,0,0,0,0,0,0,0,0,0,0,0,0,0,0,0,0,0,0,0,0,0,0,0,0,0,0,0,0,0,0,0,0,0,0,0,0,0,0,0.4977,0.4977,0,0.5007,0.5007,0.5008,0.5025,0.5025,0.5025,0.5026,0.5054,0.5055,0.5056,0,0,0,0,0,0,0,0,0,0,0,0,0,0.4931,0.4932,0.4977,0.4977,0.4978,0.5007,0.5007,0.5008,0.5025,0.5025,0.5026,0.5026,0.5054,0.5055,0.5056,0,0,0,0,0,0,0,0,0,0,0,0,0,0.4955,0.4932,0.4977,0.499,0.4991,0.5007,0.5007,0.5008,0.5025,0.5025,0.5026,0.5026,0.5054,0.5055,0.5056,0.506,0,0,0.5059,0.5059,0,0,0,0,0,0,0,0,0.4953,0.4956,0.4988,0.4989,0.4991,0.5013,0.5002,0.5025,0.5025,0.5012,0.5026,0.5026,0.504,0.5042,0.5048,0.5061,0.5063,0.5059,0.506,0.506,0.5061,0,0,0,0,0,0,0,0.4952,0.4955,0.4989,0.4988,0.499,0.4993,0.4997,0.5006,0.5025,0.5013,0.5015,0.5018,0.5041,0.5047,0.5049,0.5063,0.5059,0.506,0.5061,0.5061,0.508,0.508,0,0,0,0,0,0,0.4948,0.4954,0.4988,0.499,0.4972,0.4994,0.4998,0.5005,0.5025,0.5028,0.5018,0.5019,0.5045,0.5047,0.505,0.5055,0.506,0.5061,0.5062,0.508,0.508,0.508,0,0,0,0,0,0,0.4947,0.4951,0.4987,0.4972,0.4977,0.4995,0.5003,0.5006,0.5012,0.5029,0.5032,0.5021,0.5045,0.5048,0.5057,0.5056,0.5062,0.5063,0.508,0.508,0.508,0.5066,0,0,0,0,0,0,0.4946,0.4951,0.4953,0.4972,0.4978,0.4994,0.5003,0.5006,0.5014,0.5015,0.5032,0.5035,0.5045,0.5055,0.5058,0.5058,0.5063,0.508,0.508,0.508,0.5067,0.5066,0.5065,0,0,0,0,0,0.4944,0.4948,0.4954,0.4958,0.4981,0.4994,0.4997,0.501,0.5014,0.5016,0.5026,0.5034,0.5056,0.5056,0.5059,0.5059,0.5081,0.508,0.508,0.5067,0.5066,0.5065,0,0,0,0,0,0,0.4929,0.4951,0.4957,0.4967,0.4979,0.4997,0.5001,0.5008,0.5019,0.502,0.5034,0.5038,0.5045,0.5053,0.5053,0.5064,0.5069,0.5069,0.5058,0.5057,0.5056,0.5054,0.5064,0,0,0,0,0,0.4927,0.4936,0.4955,0.4962,0.4967,0.4983,0.4989,0.4998,0.501,0.5015,0.5026,0.5037,0.5046,0.5052,0.5062,0.5068,0.5071,0.5069,0.5068,0.5067,0.5067,0.507,0.5069,0.5079,0.5079,0.5079,0,0,0.4922,0.4935,0.4941,0.4959,0.4969,0.4978,0.4987,0.4996,0.5002,0.5016,0.5025,0.5034,0.5047,0.5054,0.5058,0.5061,0.5065,0.5067,0.5066,0.5067,0.507,0.5069,0.5068,0.5079,0.5079,0.5079,0,0,0.4918,0.493,0.4937,0.4946,0.4961,0.4971,0.4973,0.499,0.4996,0.5006,0.5016,0.5023,0.5039,0.5047,0.5054,0.5051,0.5058,0.5054,0.5048,0.505,0.505,0.5049,0.5047,0.5047,0.5054,0.5054,0.5054,0,0.4911,0.4925,0.4939,0.4947,0.4954,0.4967,0.4974,0.4982,0.4999,0.5003,0.5006,0.5026,0.5035,0.5045,0.5044,0.5049,0.505,0.5052,0.5049,0.5048,0.5048,0.5046,0.5046,0.5053,0.5053,0.5053,0.5053,0,0.4914,0.4924,0.4927,0.4944,0.4951,0.4958,0.4972,0.4978,0.4985,0.4995,0.5003,0.5015,0.5027,0.503,0.5037,0.5039,0.5041,0.5046,0.5052,0.5046,0.5045,0.5044,0.5052,0.5052,0.5053,0.5053,0,0,0.4903,0.4926,0.4927,0.4934,0.495,0.4958,0.4964,0.4976,0.498,0.4991,0.4997,0.5009,0.5014,0.5021,0.5029,0.5032,0.5028,0.5037,0.5037,0.5034,0.503,0.5025,0.5024,0.5032,0.5032,0.5032,0.5028,0,0.4901,0.4915,0.4927,0.4936,0.4944,0.4956,0.4962,0.4972,0.498,0.4988,0.4997,0.5005,0.5011,0.5015,0.5018,0.5028,0.5027,0.5028,0.5037,0.5037,0.5033,0.5024,0.5019,0.5015,0.5028,0.5028,0.5028,0,0.4901,0.4912,0.4922,0.4936,0.494,0.4945,0.4956,0.4963,0.4974,0.498,0.4988,0.4996,0.5003,0.5007,0.5016,0.5017,0.5021,0.5026,0.5026,0.5027,0.5032,0.5024,0.5014,0.5013,0.5027,0.5027,0.5027,0,0.4891,0.4907,0.4915,0.4921,0.4938,0.4941,0.4949,0.496,0.4966,0.4975,0.4978,0.4988,0.4993,0.5,0.501,0.5013,0.5017,0.5023,0.5022,0.5021,0.5022,0.5022,0.5012,0.5025,0.5025,0.5025,0.5025,0,0.4888,0.4893,0.491,0.4915,0.4921,0.4934,0.4939,0.4947,0.4957,0.4963,0.4973,0.4978,0.4992,0.4998,0.5006,0.5011,0.5013,0.5018,0.502,0.5016,0.5016,0.5019,0.502,0.5025,0.5025,0.5025,0.5025,0,0.4877,0.4889,0.4898,0.4914,0.4918,0.4921,0.4934,0.4938,0.4947,0.4954,0.4956,0.4969,0.4977,0.4988,0.4999,0.5004,0.5008,0.5012,0.5004,0.5006,0.5003,0.5003,0.4995,0.4994,0.5008,0.5008,0.5008,0,0.4875,0.4879,0.4895,0.4899,0.4906,0.4914,0.492,0.4932,0.4937,0.4949,0.4952,0.496,0.4968,0.4979,0.4989,0.4997,0.5001,0.4997,0.5002,0.4998,0.5,0.4999,0.4999,0.4996,0.4996,0.4996,0.4996,0,0.4868,0.4873,0.4882,0.4891,0.4898,0.4906,0.4915,0.4918,0.4932,0.4937,0.4945,0.4951,0.4962,0.4969,0.4979,0.4985,0.4992,0.4994,0.4994,0.4991,0.4986,0.4988,0.5001,0.4994,0.4994,0.4994,0.4994,0.4995,0.4861,0.4865,0.4876,0.4885,0.4892,0.49,0.4904,0.4913,0.492,0.493,0.4937,0.4944,0.4953,0.4967,0.4972,0.4978,0.4981,0.4981,0.4981,0.498,0.4979,0.4985,0.4979,0.498,0.498,0.498,0.498,0,0.4855,0.4862,0.487,0.4881,0.4887,0.4894,0.4903,0.4907,0.4914,0.4922,0.4929,0.4938,0.4945,0.4955,0.4963,0.4965,0.4968,0.4967,0.4966,0.4967,0.4976,0.4975,0.4964,0.4964,0.4964,0.4964,0.4964,0.4964,0.4852,0.4858,0.4865,0.4874,0.4882,0.4889,0.4894,0.49,0.4907,0.4916,0.4922,0.4929,0.4937,0.4946,0.4952,0.4955,0.4957,0.4954,0.4958,0.4966,0.4967,0.4968,0.4968,0.4955,0.4955,0.4948,0.4948,0.4948]},{"header":{"parameterUnit":"m.s-1","parameterCategory":1,"la1":30.2991,"la2":30.254,"lo1":-89.0895,"lo2":-89.0444,"dy":0.0017,"dx":0.0017,"nx":28,"ny":28,"refTime":"2023-08-23T09:00:00:Z","depth":0,"parameterNumber":3,"parameterNumberName":"V-component_of_WINDS"},"data":[0,0,0,0,0,0,0,0,0,0,0,0,0,0,0,0,0,0,0,0,0,0,0,0,0,0,0,0,0,0,0,0,0,0,0,0,0,0,0,0,0,0,0,0,0,0,0,0,0,0,0,0,0,0,0,0,0,0,1.5958,1.5957,0,1.5915,1.5914,1.5914,1.586,1.5859,1.5858,1.5857,1.5814,1.5813,1.5813,0,0,0,0,0,0,0,0,0,0,0,0,0,1.5992,1.5992,1.5958,1.5957,1.5957,1.5915,1.5914,1.5914,1.586,1.5859,1.5858,1.5857,1.5814,1.5814,1.5813,0,0,0,0,0,0,0,0,0,0,0,0,0,1.5966,1.5991,1.5958,1.5925,1.5921,1.5915,1.5914,1.5914,1.586,1.5859,1.5858,1.5856,1.5814,1.5814,1.5813,1.5836,0,0,1.5811,1.5811,0,0,0,0,0,0,0,0,1.5967,1.5965,1.593,1.5927,1.5923,1.5891,1.591,1.5888,1.586,1.5883,1.5857,1.5856,1.5841,1.5838,1.5833,1.5834,1.5832,1.5811,1.5811,1.5811,1.5811,0,0,0,0,0,0,0,1.5969,1.5966,1.5941,1.593,1.5925,1.5912,1.5907,1.5906,1.587,1.5881,1.5877,1.5873,1.5839,1.5833,1.5831,1.5831,1.5811,1.5811,1.5811,1.581,1.5847,1.5849,0,0,0,0,0,0,1.5976,1.5968,1.5942,1.5939,1.5942,1.5912,1.5906,1.5903,1.587,1.5863,1.5874,1.5871,1.5835,1.5832,1.583,1.5853,1.5811,1.581,1.581,1.5846,1.5848,1.5849,0,0,0,0,0,0,1.5977,1.5974,1.5944,1.5953,1.5948,1.5913,1.5909,1.5903,1.5897,1.5864,1.5858,1.5875,1.5834,1.583,1.5834,1.5851,1.581,1.581,1.5845,1.5847,1.5848,1.59,0,0,0,0,0,0,1.5978,1.5975,1.5984,1.5953,1.5947,1.595,1.591,1.5903,1.5897,1.5892,1.5864,1.5858,1.5832,1.5835,1.5834,1.5849,1.5809,1.5843,1.5845,1.5848,1.5897,1.5904,1.591,0,0,0,0,0,1.598,1.6,1.5984,1.5981,1.5957,1.5951,1.5947,1.5917,1.5898,1.5906,1.5885,1.5859,1.5849,1.5836,1.5834,1.5849,1.5842,1.5845,1.5848,1.5894,1.5903,1.591,0,0,0,0,0,0,1.6034,1.5996,1.5977,1.5989,1.5973,1.5942,1.5951,1.5928,1.5917,1.5913,1.5877,1.5871,1.5879,1.5865,1.5851,1.5869,1.5842,1.5844,1.5878,1.5885,1.5892,1.5894,1.5809,0,0,0,0,0,1.6047,1.6045,1.6012,1.6025,1.6018,1.5986,1.5982,1.596,1.5943,1.5936,1.5915,1.5899,1.5891,1.5888,1.588,1.5895,1.5887,1.5904,1.5911,1.5916,1.5918,1.5924,1.593,1.5859,1.5859,1.5858,0,0,1.6074,1.6053,1.6054,1.6035,1.6021,1.6019,1.5981,1.5981,1.5979,1.5936,1.5938,1.5922,1.5901,1.5911,1.5914,1.5899,1.5937,1.592,1.5924,1.5924,1.5927,1.5934,1.594,1.5861,1.586,1.586,0,0,1.6123,1.6107,1.6116,1.6102,1.608,1.6058,1.606,1.6032,1.6019,1.6021,1.5988,1.5985,1.5975,1.5961,1.5952,1.5995,1.597,1.5993,1.6026,1.6032,1.6037,1.6042,1.6056,1.6061,1.5996,1.5996,1.5996,0,1.6159,1.6155,1.6123,1.6125,1.6117,1.6078,1.6086,1.6074,1.6051,1.6046,1.603,1.6015,1.5998,1.6003,1.6013,1.6008,1.6009,1.5996,1.6039,1.6043,1.6047,1.606,1.6065,1.5999,1.5999,1.5998,1.5998,0,1.6201,1.6198,1.6208,1.6186,1.6179,1.6184,1.6152,1.6149,1.6128,1.6108,1.6109,1.6088,1.6074,1.6074,1.6054,1.6076,1.6067,1.6046,1.6017,1.6058,1.6069,1.6074,1.6003,1.6002,1.6001,1.6001,0,0,1.6282,1.6241,1.6245,1.6234,1.6207,1.6204,1.6207,1.6193,1.6191,1.6176,1.6177,1.6168,1.6148,1.6138,1.6116,1.6121,1.6154,1.6099,1.6098,1.6109,1.6175,1.619,1.6197,1.6138,1.6139,1.6139,1.6176,0,1.6324,1.6326,1.6297,1.6307,1.6304,1.6266,1.6268,1.6252,1.6233,1.6227,1.6206,1.62,1.6174,1.6168,1.6172,1.615,1.6167,1.6147,1.6137,1.6137,1.6142,1.6203,1.6219,1.6255,1.618,1.6181,1.6182,0,1.6374,1.6361,1.6371,1.6342,1.6339,1.6342,1.6326,1.6321,1.6301,1.6287,1.6276,1.625,1.625,1.6224,1.6222,1.6209,1.6204,1.6192,1.6193,1.619,1.6161,1.62,1.6266,1.6271,1.6189,1.6188,1.6187,0,1.643,1.6416,1.6419,1.6411,1.6378,1.638,1.6366,1.6345,1.6338,1.6325,1.632,1.6307,1.6299,1.6289,1.626,1.6244,1.6261,1.6233,1.6249,1.625,1.6254,1.6254,1.6318,1.6252,1.6252,1.6252,1.6252,0,1.648,1.6487,1.6444,1.6446,1.6452,1.6419,1.6426,1.6408,1.6389,1.6387,1.6354,1.6352,1.6315,1.6308,1.6286,1.6287,1.6285,1.6272,1.6266,1.6275,1.6276,1.627,1.6266,1.6253,1.6253,1.6253,1.6253,0,1.6543,1.6515,1.6516,1.6484,1.6477,1.6483,1.6455,1.6455,1.6434,1.6431,1.6429,1.6396,1.6387,1.6357,1.6341,1.6325,1.6333,1.6322,1.634,1.6336,1.6352,1.6351,1.6414,1.642,1.6352,1.6353,1.6353,0,1.6576,1.6581,1.6549,1.6545,1.6533,1.6527,1.652,1.6487,1.648,1.6457,1.646,1.6448,1.6437,1.6424,1.6398,1.6385,1.6372,1.6395,1.637,1.6378,1.6371,1.6371,1.637,1.6401,1.6402,1.6402,1.6403,0,1.6637,1.6623,1.6614,1.66,1.6592,1.6579,1.6564,1.6563,1.6526,1.652,1.651,1.6502,1.6484,1.6473,1.6455,1.644,1.6415,1.6411,1.6414,1.6422,1.6432,1.6425,1.6354,1.641,1.6409,1.6408,1.6408,1.6408,1.6686,1.6687,1.6665,1.6656,1.6641,1.6628,1.6626,1.6605,1.6596,1.6579,1.656,1.6553,1.6531,1.6505,1.6492,1.6484,1.6471,1.6475,1.6476,1.6478,1.6481,1.6434,1.6481,1.6481,1.6481,1.6481,1.6481,0,1.6744,1.6728,1.672,1.67,1.6692,1.6669,1.6652,1.6647,1.664,1.6622,1.6612,1.66,1.6588,1.6561,1.6546,1.6545,1.6533,1.6543,1.6542,1.6538,1.6495,1.6493,1.6552,1.6552,1.6552,1.6552,1.6552,1.6552,1.6773,1.6775,1.6758,1.6751,1.6734,1.6726,1.6718,1.6705,1.669,1.6679,1.6669,1.6651,1.6629,1.6612,1.66,1.6592,1.6588,1.6601,1.6589,1.6549,1.6542,1.6535,1.6534,1.66,1.6601,1.6633,1.6634,1.6634]}]]